"Pseudo-MPEC" for P10ODfm

Created 2019 Jun 15 19:08:07 UT using Find_Orb

Click here for an explanation of pseudo-MPECs

 
 Astrometry: 
     P10ODfm  C2019 04 08%1etm.6=xXcgmgDkG]#hcXhbT=Fn+9sXn/g^'eD-/GN-luEp=b(+F51
     P10ODfm  C2019 04 08J\#p*.cX$Ahbdo(Zm5D:=Q-lPW/8_nbuq2Yu8^qLY\uahP:]mFj_F51
     P10ODfm  C2019 04 08vGH5`=w[hd;H_S`0q2jSa+J)\dfO0Vi-W7v=.sSw7nywH_asKQ'2F51
     P10ODfm  C2019 04 08]Qoso\ZlkAJ]=AkjtB(CAYkZ@+LEq/Pg\F#^oPGs3;X.i!62voWWF51
     P10ODfm  C2019 05 016vuh%L/ar2ER'OSUbqpu%9vLe7]UgTqcBv5Q]ac]mD2FyO=IJvclF51
     P10ODfm  C2019 05 01CXZdgH_e:5TkM;.0.Rv.,%%U)!Astrometryr)n;dPNGxF`c:v=+F51
     P10ODfm  C2019 05 01I2m3tE/\+iaarYVdO@j%HlWHRtredacted;bNkclickGQW:dQ9N3F51
     P10ODfm  C2019 05 01E=N,here5j?EUHey'3k^5D2wr#DJZ8heRxw3]#qVHL%hK,U=EkaWF51
     P10ODfm  C2019 06 02BY[g]oYL[1B3b0:E315][#bAY%@J@xlT337\m==X:+AJE@70vLGWF51
     P10ODfm  C2019 06 02*/Scisg/K3c8!UuHLlfwfor!jvB[,bSPl=]/,0Po6c3NBIfnG5mHF51
     P10ODfm  C2019 06 02%jDav=#*GoG*$-nTV*qiY61\VZR#oFt6J5fA8phaqL?XAM5KEX^5F51
     P10ODfm  C2019 06 02DAkXMIMsO!cSkPu)F=ErjdPe8?j7ROLPJq.w@[qI\Z#M0R11I0)9F51
     P10ODfm |C2019 06 02t3XfSI#_x)5H!CyexplanationA$pk:+HBo-#=cqkQOX^x5CP?Xx807
     P10ODfm |C2019 06 02@!R;YH,s-.o#b]f?!]1R2C6eX3;wknqFF3YnsRV(YD$0xqmcIZ,9807
     P10ODfm |C2019 06 03EL`q.gqTTP#N]Y0_8Tc.?;f$)FdCE)I`yunflIACLI_Y?wg(_`xe807
     P10ODfm KC2019 06 06MoMglsp;3Ij'5]*0Z0Y`ol%FZa,t9KG@O]f-\5VLpk/!ie5)5(b[691
     P10ODfm KC2019 06 06$A6=m83ggpTiW6$3bNYL)[oopS*Ro?nsa+kTCXA0)OS`e1t(_-Ti691

Station data:
(691) Steward Observatory, Kitt Peak - Spacewatch  (N31.962174 W111.600327)
   US/Arizona.  Observer J. V. Scotti. 0.9-m f/3 reflector + CCD.
(807) Cerro Tololo Observatory, La Serena  (S30.169136 W70.805900)  Chile.
(F51) Pan-STARRS 1, Haleakala  (N20.707235 W156.255910)  US/Hawaii.
   Observers N. Primak, A. Schultz, S. Watters, J. Thiel, T. Goggia. Measurer
   PS1 Science Consortium. 1.8-m Ritchey-Chrétien + CCD.

Orbital elements:  P10ODfm
   Perihelion 2022 Jan 15.639901 +/- 3.1 TT = 15:21:27 (JD 2459595.139901)
Epoch 2019 Jun  6.0 TT = JDT 2458640.5   Ju: 0.2819           AutoNEOCP
M 280.28794868 +/- 0.27             (J2000 ecliptic)
n   0.08349960 +/- 1.77e-5          Peri.   62.72848 +/- 0.21
a   5.18417651 +/- 0.000732         Node   207.97296 +/- 0.0043
e   0.0230819 +/- 0.000616          Incl.   30.97115 +/- 0.0050
P  11.80                   H 14.3   G  0.15   U  5.5  
q 5.06451561 +/- 0.00265    Q 5.30383742 +/- 0.00382
From 17 observations 2019 Apr. 8-June 6; mean residual 0".11
Residuals in arcseconds: 
190408 F51  .03-  .05-    190501 F51  .03+  .02+    190602 807  .16-  .03-    
190408 F51  .01-  .04+    190501 F51  .01-  .11-    190602 807  .09+  .08-    
190408 F51  .04+  .05+    190602 F51  .02+  .12+    190603 807  .10-  .04-    
190408 F51  .03-  .04-    190602 F51  .03-  .14+    190606 691  .34+  .05+    
190501 F51  .01+  .07+    190602 F51  .06+  .23+    190606 691  .21-  .28-    
190501 F51  .04+  .03-    190602 F51  .07-  .04+    

Ephemerides (geocentric):
Date (UTC) HH   RA              Dec         delta   r     elong  mag " sig PA
---- -- -- --  -------------   -----------  ------ ------ -----  --- ---- ---
2019 06 15 19  11 45 05.097   -09 13 19.12  4.9569 5.1638  96.1 22.1 .358  85
2019 06 15 20  11 45 05.898   -09 13 12.19  4.9576 5.1638  96.0 22.1 .360  85
2019 06 15 21  11 45 06.701   -09 13 05.27  4.9582 5.1638  96.0 22.1 .361  85
2019 06 15 22  11 45 07.505   -09 12 58.35  4.9588 5.1638  95.9 22.1 .362  85
2019 06 15 23  11 45 08.310   -09 12 51.45  4.9594 5.1638  95.9 22.1 .364  85
2019 06 16 00  11 45 09.115   -09 12 44.55  4.9601 5.1638  95.9 22.1 .365  85
2019 06 16 01  11 45 09.922   -09 12 37.66  4.9607 5.1638  95.8 22.1 .367  85
2019 06 16 02  11 45 10.730   -09 12 30.79  4.9613 5.1638  95.8 22.1 .368  85
2019 06 16 03  11 45 11.539   -09 12 23.92  4.9620 5.1638  95.8 22.1 .370  85
2019 06 16 04  11 45 12.349   -09 12 17.06  4.9626 5.1637  95.7 22.1 .371  85
2019 06 16 05  11 45 13.160   -09 12 10.21  4.9632 5.1637  95.7 22.1 .372  85
2019 06 16 06  11 45 13.972   -09 12 03.37  4.9638 5.1637  95.6 22.1 .374  85
2019 06 16 07  11 45 14.786   -09 11 56.54  4.9645 5.1637  95.6 22.1 .375  85
2019 06 16 08  11 45 15.600   -09 11 49.72  4.9651 5.1637  95.6 22.1 .377  85
2019 06 16 09  11 45 16.415   -09 11 42.91  4.9657 5.1637  95.5 22.1 .378  85
2019 06 16 10  11 45 17.231   -09 11 36.11  4.9664 5.1637  95.5 22.1 .380  85
2019 06 16 11  11 45 18.049   -09 11 29.32  4.9670 5.1637  95.5 22.1 .381  85
2019 06 16 12  11 45 18.867   -09 11 22.54  4.9676 5.1637  95.4 22.1 .382  85
2019 06 16 13  11 45 19.687   -09 11 15.77  4.9682 5.1637  95.4 22.1 .384  85
2019 06 16 14  11 45 20.507   -09 11 09.00  4.9689 5.1637  95.4 22.1 .385  85
2019 06 16 15  11 45 21.329   -09 11 02.25  4.9695 5.1637  95.3 22.1 .387  85
2019 06 16 16  11 45 22.151   -09 10 55.51  4.9701 5.1637  95.3 22.1 .388  85
2019 06 16 17  11 45 22.975   -09 10 48.77  4.9708 5.1637  95.2 22.1 .390  85
2019 06 16 18  11 45 23.800   -09 10 42.05  4.9714 5.1636  95.2 22.1 .391  85
2019 06 16 19  11 45 24.625   -09 10 35.33  4.9720 5.1636  95.2 22.1 .393  85
2019 06 16 20  11 45 25.452   -09 10 28.62  4.9726 5.1636  95.1 22.1 .394  85
2019 06 16 21  11 45 26.280   -09 10 21.93  4.9733 5.1636  95.1 22.1 .396  85
2019 06 16 22  11 45 27.109   -09 10 15.24  4.9739 5.1636  95.1 22.1 .397  85
2019 06 16 23  11 45 27.939   -09 10 08.56  4.9745 5.1636  95.0 22.1 .398  85
2019 06 17 00  11 45 28.770   -09 10 01.89  4.9752 5.1636  95.0 22.1 .400  85
2019 06 17 01  11 45 29.602   -09 09 55.24  4.9758 5.1636  94.9 22.1 .401  85
2019 06 17 02  11 45 30.435   -09 09 48.59  4.9764 5.1636  94.9 22.1 .403  85
2019 06 17 03  11 45 31.269   -09 09 41.95  4.9771 5.1636  94.9 22.1 .404  85
2019 06 17 04  11 45 32.104   -09 09 35.32  4.9777 5.1636  94.8 22.1 .406  85
2019 06 17 05  11 45 32.940   -09 09 28.70  4.9783 5.1636  94.8 22.1 .407  85
2019 06 17 06  11 45 33.778   -09 09 22.08  4.9789 5.1636  94.8 22.1 .409  85
2019 06 17 07  11 45 34.616   -09 09 15.48  4.9796 5.1636  94.7 22.1 .410  85
2019 06 17 08  11 45 35.455   -09 09 08.89  4.9802 5.1635  94.7 22.1 .412  85
2019 06 17 09  11 45 36.295   -09 09 02.31  4.9808 5.1635  94.7 22.1 .413  85
2019 06 17 10  11 45 37.137   -09 08 55.73  4.9815 5.1635  94.6 22.1 .415  85
2019 06 17 11  11 45 37.979   -09 08 49.17  4.9821 5.1635  94.6 22.1 .416  85
2019 06 17 12  11 45 38.823   -09 08 42.61  4.9827 5.1635  94.5 22.1 .418  85
2019 06 17 13  11 45 39.667   -09 08 36.07  4.9833 5.1635  94.5 22.1 .419  85
2019 06 17 14  11 45 40.513   -09 08 29.53  4.9840 5.1635  94.5 22.1 .421  85
2019 06 17 15  11 45 41.359   -09 08 23.01  4.9846 5.1635  94.4 22.1 .422  85
2019 06 17 16  11 45 42.207   -09 08 16.49  4.9852 5.1635  94.4 22.1 .424  85
2019 06 17 17  11 45 43.056   -09 08 09.98  4.9859 5.1635  94.4 22.1 .425  85
2019 06 17 18  11 45 43.905   -09 08 03.48  4.9865 5.1635  94.3 22.1 .427  85